Phuket, Thailand

12:37 AM +07 on April 25, 2018 (GMT +0700)
Phuket International

Weather History for VTSP - September, 2012

Change the Weather History Date:

Wednesday, September 19, 2012

  Actual Average Record
Temperature  
Mean Temperature 80 °F -  
Max Temperature 85 °F 87 °F 93 °F (1996)
Min Temperature 74 °F 76 °F 73 °F (2011)
Cooling Degree Days 14    
Growing Degree Days 30 (Base 50)    
Moisture  
Dew Point 74 °F    
Average Humidity 82    
Maximum Humidity 94    
Minimum Humidity 68    
Precipitation  
Precipitation 0.28 in 0.49 in - ()
Sea Level Pressure  
Sea Level Pressure 29.85 in    
Wind  
Wind Speed 11 mph ()    
Max Wind Speed 24 mph    
Max Gust Speed 23 mph    
Visibility 5.0 miles    
Events Rain    
Averages and records for this station are not official NWS values.
T = Trace of Precipitation, MM = Missing Value Source: Averaged Metar Reports

Daily Weather History Graph

Daily Weather History Graph

Search for Another Location

Airport or City:

Astronomy

Sep. 19, 2012 Rise Set
Actual Time 6:16 AM +07 6:24 PM +07
Civil Twilight 5:55 AM +07 6:45 PM +07
Nautical Twilight 5:31 AM +07 7:09 PM +07
Astronomical Twilight 5:06 AM +07 7:33 PM +07
Moon 8:57 AM +07 (9/19) 9:05 PM +07 (9/19)
Length of Visible Light 12h 49m
Length of Day
12h 08m
Waxing Crescent, 13% of the Moon is Illuminated
Sep 19
Waxing Crescent
Sep 23
First Quarter
Sep 30
Full
Oct 8
Last Quarter
Oct 15
New

Hourly Weather History & Observations

Time (+07) Temp. Heat Index Dew Point Humidity Pressure Visibility Wind Dir Wind Speed Gust Speed Precip Events Conditions
12:00 AM 78.8 °F - 73.4 °F 83% 29.89 in 3.7 mi West 24.2 mph - N/A Rain Rain
12:30 AM 78.8 °F - 73.4 °F 83% 29.89 in 4.3 mi West 20.7 mph - N/A   Mostly Cloudy
1:00 AM 79 °F - 76 °F 86% 29.81 in 6 mi West 13.8 mph - - Rain Light Rain
1:00 AM 78.8 °F - 73.4 °F 83% 29.86 in 5.0 mi West 20.7 mph - N/A   Mostly Cloudy
1:30 AM 77.0 °F - 73.4 °F 89% 29.86 in 5.0 mi West 19.6 mph - N/A   Mostly Cloudy
2:00 AM 77.0 °F - 71.6 °F 83% 29.86 in 4.3 mi West 19.6 mph - N/A Rain Light Rain
2:30 AM 77.0 °F - 73.4 °F 89% 29.83 in 5.0 mi West 13.8 mph - N/A   Mostly Cloudy
3:30 AM 78.8 °F - 71.6 °F 78% 29.83 in 5.0 mi West 15.0 mph - N/A   Mostly Cloudy
4:00 AM 78.8 °F - 71.6 °F 78% 29.83 in 5.0 mi West 11.5 mph - N/A   Mostly Cloudy
5:00 AM 77.0 °F - 73.4 °F 89% 29.83 in 5.0 mi WSW 5.8 mph - N/A   Mostly Cloudy
5:30 AM 78.8 °F - 73.4 °F 83% 29.83 in 5.6 mi WSW 5.8 mph - N/A   Mostly Cloudy
6:00 AM 77.0 °F - 73.4 °F 89% 29.83 in 4.3 mi WSW 3.5 mph - N/A Rain Rain
6:30 AM 77.0 °F - 73.4 °F 89% 29.83 in 4.3 mi WNW 13.8 mph - N/A Rain Rain
7:00 AM 77 °F - 74 °F 89% 29.85 in 5 mi West 5.8 mph - - Rain Light Rain
7:00 AM 75.2 °F - 73.4 °F 94% 29.86 in 5.0 mi WSW 5.8 mph - N/A Rain Light Rain
7:30 AM 75.2 °F - 71.6 °F 89% 29.86 in 5.0 mi WSW 9.2 mph - N/A Rain Light Rain
8:00 AM 75.2 °F - 71.6 °F 89% 29.89 in 5.0 mi WSW 5.8 mph - N/A Rain Light Rain
8:30 AM 77.0 °F - 73.4 °F 89% 29.89 in 5.0 mi Variable 3.5 mph - N/A Rain Light Rain
9:00 AM 78.8 °F - 73.4 °F 83% 29.89 in 5.0 mi Calm Calm - N/A   Mostly Cloudy
9:30 AM 82.4 °F 88.2 °F 73.4 °F 74% 29.89 in 5.0 mi West 10.4 mph - N/A   Mostly Cloudy
10:00 AM 82.4 °F 89.5 °F 75.2 °F 79% 29.89 in 5.0 mi West 5.8 mph - N/A   Mostly Cloudy
10:30 AM 84.2 °F 90.9 °F 73.4 °F 70% 29.92 in 5.0 mi West 10.4 mph - N/A   Mostly Cloudy
11:30 AM 84.2 °F 90.9 °F 73.4 °F 70% 29.89 in 5.0 mi West 8.1 mph - N/A   Mostly Cloudy
12:00 PM 84.2 °F 90.9 °F 73.4 °F 70% 29.89 in 5.6 mi West 9.2 mph - N/A   Mostly Cloudy
12:30 PM 84.2 °F 90.9 °F 73.4 °F 70% 29.86 in 5.6 mi WNW 12.7 mph - N/A   Mostly Cloudy
1:00 PM 85 °F - 76 °F 68% 29.84 in 5 mi West 11.5 mph - -   Partly Cloudy
1:00 PM 86.0 °F 95.1 °F 75.2 °F 70% 29.86 in 1.9 mi West 10.4 mph - N/A Rain Heavy Rain
1:30 PM 77.0 °F - 73.4 °F 89% 29.86 in 2.5 mi West 11.5 mph 23.0 mph N/A Rain Rain
2:00 PM 75.2 °F - 73.4 °F 94% 29.86 in 3.7 mi WNW 9.2 mph - N/A Rain Light Rain
2:30 PM 78.8 °F - 73.4 °F 83% 29.83 in 3.7 mi Variable 3.5 mph - N/A Rain Light Rain
3:00 PM 80.6 °F 85.4 °F 73.4 °F 79% 29.80 in 5.0 mi West 3.5 mph - N/A Rain Light Rain
3:30 PM 80.6 °F 86.2 °F 75.2 °F 84% 29.80 in 5.0 mi Variable 3.5 mph - N/A   Mostly Cloudy
4:00 PM 80.6 °F 86.2 °F 75.2 °F 84% 29.80 in 5.0 mi West 9.2 mph - N/A   Mostly Cloudy
4:30 PM 82.4 °F 89.5 °F 75.2 °F 79% 29.77 in 5.0 mi West 11.5 mph - N/A   Mostly Cloudy
5:00 PM 84.2 °F 94.1 °F 77.0 °F 79% 29.77 in 5.6 mi West 11.5 mph - N/A   Mostly Cloudy
5:30 PM 82.4 °F 89.5 °F 75.2 °F 79% 29.80 in 5.6 mi WNW 10.4 mph - N/A   Mostly Cloudy
6:00 PM 82.4 °F 89.5 °F 75.2 °F 79% 29.80 in 5.6 mi West 8.1 mph - N/A   Mostly Cloudy
6:30 PM 80.6 °F 86.2 °F 75.2 °F 84% 29.80 in 5.6 mi WNW 11.5 mph - N/A   Mostly Cloudy
7:00 PM 82 °F - 76 °F 78% 29.76 in 6 mi SSW 9.2 mph - -   Scattered Clouds
7:00 PM 80.6 °F 86.2 °F 75.2 °F 84% 29.83 in 5.6 mi West 10.4 mph - N/A   Scattered Clouds
7:30 PM 80.6 °F 86.2 °F 75.2 °F 84% 29.83 in 5.6 mi West 11.5 mph - N/A   Scattered Clouds
8:00 PM 80.6 °F 86.2 °F 75.2 °F 84% 29.86 in 5.6 mi WNW 6.9 mph - N/A   Scattered Clouds
8:30 PM 80.6 °F 86.2 °F 75.2 °F 84% 29.86 in 5.6 mi West 8.1 mph - N/A   Scattered Clouds
9:00 PM 80.6 °F 86.2 °F 75.2 °F 84% 29.86 in 5.6 mi WNW 9.2 mph 20.7 mph N/A   Mostly Cloudy
9:30 PM 80.6 °F 86.2 °F 75.2 °F 84% 29.89 in 5.6 mi West 10.4 mph - N/A   Mostly Cloudy
10:00 PM 80.6 °F 85.4 °F 73.4 °F 79% 29.89 in 5.6 mi WNW 11.5 mph - N/A   Mostly Cloudy
10:30 PM 80.6 °F 86.2 °F 75.2 °F 84% 29.89 in 5.6 mi WNW 9.2 mph - N/A   Mostly Cloudy
11:00 PM 77.0 °F - 73.4 °F 89% 29.92 in 5.0 mi WNW 11.5 mph - N/A   Mostly Cloudy
11:30 PM 77.0 °F - 73.4 °F 89% 29.89 in 4.3 mi WNW 8.1 mph - N/A Rain Light Rain